Temperature
18 18 18 18 18 17 16 16 15 16 16 15 15 14 15 15 16 17 17 17 18 18 18 18 18 18 18 18 17 17 16 16 16 16 15 15 14 14 14 13 13 13 13 13
18 18 17 17 17 16 16 15 15 15 15 15 15 15 15 15 15 15 16 16 17 17 17 18 18 18 18 18 17 17 16 16 16 15 15 15 14 14 14 14 13 13 13 13
16 16 18 17 17 16 15 15 15 14 14 14 14 14 14 14 14 14 15 15 16 16 17 17 17 17 17 17 17 17 16 16 15 15 15 15 15 14 14 14 14 13 13 13
14 17 18 16 16 15 14 14 14 14 14 14 14 15 15 15 14 14 14 15 15 15 16 16 17 17 17 17 16 16 16 16 15 15 15 15 15 14 14 14 14 14 13 13
13 15 15 16 15 15 15 14 13 13 13 14 14 14 14 14 14 14 14 14 14 15 15 16 16 16 16 16 16 16 16 16 16 15 15 15 15 15 15 14 14 14 14 13
13 16 15 15 15 15 15 14 13 13 13 13 13 12 12 14 14 14 14 14 14 14 14 15 15 15 15 15 15 15 15 15 15 15 15 15 15 15 15 14 14 14 14 14
12 14 13 14 14 15 14 14 13 13 13 13 12 12 13 13 13 13 13 13 14 14 14 14 14 14 14 14 14 14 14 15 15 15 15 15 15 15 14 14 14 14 14 14
11 13 13 13 13 13 12 13 13 13 13 12 12 12 12 13 13 13 13 13 13 13 13 13 13 13 13 13 13 14 14 14 14 15 15 15 15 15 14 14 14 14 14 14
11 12 12 13 13 13 13 13 13 13 12 12 12 12 12 12 12 12 12 12 12 12 12 12 12 12 12 13 13 13 13 14 14 14 14 14 14 14 14 14 14 14 14 14
10 11 12 12 13 13 13 13 13 12 12 12 11 11 11 11 11 11 11 11 11 11 11 11 11 11 11 12 12 12 12 13 13 13 14 14 14 14 14 14 14 14 14 14
9 10 11 12 12 12 12 12 12 12 12 11 11 11 11 11 11 10 10 10 10 10 11 11 11 11 11 11 11 11 12 12 12 13 13 13 13 14 14 14 14 14 14 14
10 11 10 12 12 12 12 12 12 11 11 11 10 10 10 10 10 10 10 10 10 10 10 10 10 10 10 10 10 10 10 11 11 12 12 12 13 13 13 13 14 14 14 14
12 12 12 12 12 12 11 11 11 11 10 10 10 10 10 9 9 9 9 10 10 10 10 10 10 10 10 10 10 10 10 10 10 11 11 11 12 12 12 13 13 13 13 13
12 12 11 11 11 11 11 11 10 10 10 10 9 9 9 9 9 9 9 9 9 9 9 9 9 9 9 9 9 9 9 9 10 10 10 11 11 11 11 12 12 13 13 13
12 12 11 11 11 11 10 10 10 10 9 9 9 9 9 8 8 8 8 8 9 9 9 9 9 9 9 8 8 9 9 9 9 9 9 10 10 10 10 11 11 12 12 13
11 11 11 10 10 10 10 9 9 9 9 9 8 8 8 8 8 8 8 8 8 8 8 8 8 8 8 8 8 8 8 8 8 9 9 9 9 10 10 10 10 10 11 12
10 10 10 10 10 10 9 9 9 9 8 8 8 8 8 8 8 8 8 8 7 7 7 7 7 7 7 7 7 7 7 8 8 8 8 8 9 9 9 9 9 10 10 11
10 10 10 10 10 9 9 9 8 8 8 8 8 7 7 7 7 7 7 7 7 7 7 7 7 7 7 7 7 7 7 7 7 7 7 8 8 8 8 9 9 9 9 10
10 10 9 9 9 9 8 8 8 8 8 7 7 7 7 7 7 7 7 6 6 6 6 6 6 6 6 6 6 6 6 6 7 7 7 7 7 8 8 8 9 9 9 9
9 9 9 9 8 8 8 8 8 7 7 7 7 7 7 6 6 6 6 6 6 6 6 6 6 6 6 6 6 6 6 6 6 6 6 7 7 7 7 8 8 8 8 9
9 9 8 8 8 8 8 7 7 7 7 7 6 6 6 6 6 6 5 5 5 6 5 5 5 6 6 5 5 5 6 6 6 6 6 6 6 6 7 7 7 8 8 8
8 8 8 8 7 7 7 7 7 7 6 6 6 6 6 5 5 5 5 5 5 5 5 5 5 5 5 5 5 5 5 5 5 5 5 6 6 6 6 7 7 7 8 8
8 7 7 7 7 7 7 7 6 6 6 6 6 6 5 5 5 5 4 5 5 5 5 5 5 5 5 5 5 5 5 5 5 5 5 5 5 6 6 6 7 7 7 7
7 7 7 7 6 6 6 6 6 6 6 6 5 5 5 5 5 5 4 4 4 4 5 5 5 5 5 5 5 5 5 5 5 5 5 5 5 5 6 6 6 7 7 7
6 6 6 6 6 6 6 6 6 6 5 5 5 5 5 5 4 4 4 4 4 4 4 5 4 4 5 5 4 4 4 4 4 4 4 4 5 5 5 6 6 6 7 7
6 6 6 6 6 6 6 5 5 5 5 5 5 5 5 5 4 4 4 4 4 4 4 4 4 4 4 4 4 4 4 4 4 4 4 4 4 5 5 5 6 6 6 6
6 6 6 5 6 5 5 5 5 5 5 5 5 5 4 4 4 4 4 4 4 4 4 4 4 4 4 4 4 4 4 4 4 4 4 4 4 4 5 5 5 6 6 6
Wind_Speed
2 1 1 0 1 2 3 5 6 3 1 5 7 7 8 8 9 11 11 11 9 7 6 5 5 4 4 4 5 6 7 9 10 8 7 6 6 5 4 4 4 3 3 2
2 3 2 2 4 2 2 2 2 2 1 5 5 5 8 9 11 11 11 11 11 9 8 7 6 6 5 4 4 5 8 9 8 7 7 7 7 6 5 5 4 3 3 3
2 4 3 2 2 2 3 2 3 2 2 5 5 7 7 8 9 10 11 11 11 10 8 7 7 5 5 5 3 3 6 7 7 7 8 8 7 6 7 6 5 4 4 4
1 2 1 3 2 4 6 4 3 1 1 3 3 3 3 6 8 10 11 11 11 11 10 8 6 6 5 4 2 3 5 6 6 7 8 8 7 8 8 6 6 6 5 5
3 1 2 2 0 1 3 1 3 3 4 6 6 3 4 7 7 7 8 8 8 8 8 8 8 7 6 4 3 3 5 6 7 7 8 8 9 10 8 7 7 6 5 6
4 3 4 4 3 3 4 1 3 2 4 6 5 4 5 9 9 8 8 8 9 9 8 9 9 7 6 6 5 6 7 7 7 7 8 9 10 10 7 7 8 7 7 7
3 3 5 3 5 2 3 4 2 1 2 3 1 3 6 9 9 8 8 8 9 8 8 9 8 6 6 6 7 9 8 7 6 7 8 9 8 7 7 8 7 7 7 7
4 3 6 2 2 3 3 1 0 1 2 2 3 5 6 8 9 9 9 8 8 8 9 9 7 6 7 8 9 8 7 7 7 7 7 7 7 7 7 8 8 8 7 6
6 5 2 0 2 1 2 1 1 1 3 3 4 5 7 7 8 9 9 8 8 8 9 9 7 6 8 10 10 9 8 8 8 7 7 6 6 7 6 7 8 8 8 8
1 3 2 1 1 1 1 1 1 1 2 2 4 6 7 8 8 9 8 8 8 8 9 10 9 8 9 10 9 8 9 9 8 7 7 6 6 6 7 8 8 9 9 9
2 4 2 3 2 1 0 1 1 2 2 3 3 5 7 7 8 8 8 8 7 8 9 11 10 10 9 9 9 9 9 9 8 7 7 6 7 7 9 9 10 10 10 10
6 6 5 5 4 3 2 2 2 2 3 4 3 5 6 7 8 8 9 9 9 9 10 11 11 11 10 8 8 9 9 9 7 7 6 6 6 6 9 9 12 14 13 12
5 4 5 4 3 3 3 3 3 3 4 5 5 5 6 7 8 8 9 10 10 10 11 11 11 11 10 9 8 9 9 10 8 7 7 6 6 7 7 7 8 10 13 14
4 3 2 3 4 4 3 3 3 3 4 5 5 6 6 7 8 9 10 10 11 11 11 11 11 12 11 9 9 9 10 11 10 7 7 7 7 7 7 7 6 6 8 12
5 5 5 4 3 3 3 2 3 4 5 6 6 6 7 8 9 10 11 11 10 10 11 11 12 12 11 9 9 10 9 8 8 7 7 7 7 7 7 8 7 6 3 5
4 3 3 3 4 4 3 4 4 5 6 6 7 8 8 9 10 11 11 10 10 12 12 12 12 12 11 10 10 9 9 14 12 8 7 7 6 7 7 7 7 7 8 7
5 4 4 4 5 5 5 5 6 6 6 7 8 9 9 9 10 11 11 10 10 11 12 12 13 13 12 10 10 9 8 10 14 10 7 8 7 8 8 8 8 9 9 9
7 7 7 7 7 6 6 6 6 7 7 8 8 8 9 9 10 12 12 12 11 11 12 12 12 13 12 11 10 8 8 8 8 9 8 8 8 8 8 8 9 9 7 8
4 4 5 5 5 5 6 7 7 7 8 7 8 8 9 10 10 11 11 11 11 13 12 11 19 15 13 14 14 8 9 10 10 9 8 10 10 8 8 9 9 9 8 8
3 3 4 4 5 5 6 7 7 7 7 7 8 9 10 11 11 11 11 10 10 11 12 15 15 12 12 13 16 9 10 10 10 10 9 9 9 9 9 9 10 9 9 10
3 4 4 5 6 6 7 7 7 8 8 8 8 9 10 11 11 10 10 11 12 12 12 18 13 11 11 14 17 9 9 10 10 10 9 9 10 10 10 10 10 9 9 9
4 4 5 6 6 7 7 6 7 8 8 8 9 9 10 11 11 10 10 10 12 16 13 10 10 15 18 19 10 9 10 10 10 9 9 10 10 10 10 10 10 9 9 10
4 5 6 7 7 7 7 7 8 8 8 9 9 10 10 10 8 9 11 10 10 17 14 10 16 24 26 15 9 10 10 10 10 10 10 10 10 10 10 10 10 10 9 10
5 6 7 7 5 5 7 9 8 7 8 9 9 10 9 8 8 8 9 15 19 21 13 15 22 25 23 10 9 10 10 10 10 10 10 10 10 10 10 10 9 9 9 10
7 7 7 7 7 7 8 8 8 8 8 8 9 10 9 7 8 10 10 12 17 19 12 16 22 23 14 10 10 10 10 10 11 10 9 9 9 10 9 9 9 8 9 10
7 7 7 8 7 7 7 6 6 7 7 8 9 8 8 7 8 9 9 11 13 17 13 11 11 14 10 10 11 11 11 11 11 10 10 9 9 9 9 8 8 8 8 9
7 6 6 6 7 7 6 6 7 8 8 8 9 9 9 9 9 9 10 10 10 11 10 10 10 10 10 10 10 10 10 10 9 9 9 9 8 8 7 7 6 6 6 7
Wind_Direction
224 255 127 321 345 118 154 173 172 210 188 326 334 338 342 351 3 12 8 1 352 341 332 327 325 310 287 268 241 215 205 212 221 219 214 214 218 219 218 218 225 226 231 255
8 40 71 45 6 55 100 115 134 101 13 323 332 360 8 8 12 9 358 351 346 339 334 329 320 313 301 287 263 222 216 223 226 217 214 215 217 214 213 220 226 220 222 232
284 313 30 8 356 99 99 53 120 136 263 319 349 10 11 6 9 360 348 344 343 336 326 314 308 302 295 285 280 236 231 233 226 217 219 221 217 210 214 217 215 219 225 221
105 42 228 231 15 118 111 75 55 84 322 324 309 302 24 25 9 354 348 344 340 337 331 323 315 313 305 301 293 259 245 244 234 222 225 223 213 216 219 212 209 216 222 220
115 141 281 292 120 149 153 97 15 14 346 338 325 351 2 10 358 342 334 331 327 326 327 330 331 327 325 316 304 291 268 257 244 227 228 223 219 221 218 208 212 213 214 212
120 156 230 243 295 303 128 187 324 357 345 345 17 12 318 335 336 332 333 335 336 336 340 343 338 336 331 321 310 293 283 270 261 237 229 228 226 223 215 209 214 211 214 212
144 197 254 274 308 64 143 244 278 311 331 352 350 249 285 318 328 330 331 332 337 341 341 334 331 335 327 320 304 292 292 283 267 250 240 236 229 222 211 208 208 210 215 217
146 182 245 309 70 132 206 219 211 328 329 325 304 307 318 325 328 332 335 336 337 339 335 332 332 331 322 311 304 306 299 287 273 259 249 246 229 223 212 203 205 211 215 223
185 202 224 8 145 165 151 154 251 301 315 326 324 322 325 326 327 327 327 330 330 329 328 330 329 324 312 308 314 315 309 295 282 272 255 245 230 222 212 205 208 213 211 220
235 244 226 212 160 82 113 161 240 296 313 328 319 318 324 325 325 325 322 321 323 326 327 324 322 313 306 309 313 312 307 302 292 280 269 252 240 228 217 212 213 214 214 218
245 260 271 261 240 227 135 70 11 336 322 309 313 315 315 317 317 316 315 312 314 315 313 312 314 311 311 315 317 313 308 303 298 284 271 257 244 236 230 226 217 214 218 212
219 217 196 233 233 205 196 242 259 286 310 312 307 307 313 314 311 311 312 311 310 309 307 308 311 310 308 309 312 312 312 308 300 291 281 265 254 263 255 247 239 229 220 211
212 209 198 222 211 200 209 240 265 273 275 292 301 303 308 307 307 309 310 311 309 304 302 303 305 306 304 306 307 304 302 301 298 289 283 271 255 248 261 272 258 238 226 216
207 159 194 220 228 234 236 256 271 278 280 279 287 297 302 302 304 308 308 304 302 303 303 302 302 302 300 300 301 299 299 300 299 285 278 271 258 249 244 244 250 253 236 221
218 202 211 226 226 238 251 260 276 285 287 292 292 295 299 302 303 301 300 302 304 305 305 304 303 301 301 298 299 297 297 297 295 288 279 272 264 252 244 241 242 241 235 223
216 212 209 212 227 241 256 263 265 270 278 283 289 291 292 293 294 296 298 303 306 306 305 303 300 299 301 298 297 295 290 297 304 294 286 279 270 258 246 240 239 231 224 216
186 212 221 236 243 251 252 251 249 256 268 276 282 288 295 299 301 302 301 299 296 295 295 296 296 297 297 294 290 290 289 293 300 296 281 274 268 258 248 239 237 235 231 215
206 212 215 219 229 243 256 259 259 262 266 272 283 290 294 295 296 297 298 300 302 300 296 292 294 301 297 295 290 285 285 286 283 282 281 276 269 260 249 241 237 236 236 217
215 222 229 232 233 236 247 257 262 262 269 277 283 284 285 286 288 291 296 299 300 301 298 296 306 310 300 296 298 283 283 283 283 278 279 278 274 263 252 243 238 234 224 212
232 243 252 256 253 247 253 261 266 271 273 275 280 286 289 290 291 293 295 292 285 282 286 295 300 297 295 296 298 284 280 280 279 276 275 276 273 265 256 247 238 231 223 213
237 248 256 258 263 263 259 261 265 271 277 277 276 279 283 288 292 292 293 297 293 288 292 298 300 294 295 297 299 288 280 277 275 273 270 270 272 266 258 251 240 232 225 216
240 247 257 261 260 264 265 262 263 270 278 279 278 279 283 289 294 294 285 281 287 296 300 291 291 297 305 305 294 287 281 276 274 272 269 268 268 264 258 251 241 233 224 215
249 253 260 260 257 260 269 270 265 267 271 274 276 278 279 281 285 289 296 293 292 299 303 291 296 304 308 308 293 288 283 277 273 272 269 267 266 264 259 252 242 232 221 212
254 258 259 261 262 265 270 271 268 267 266 270 271 270 272 281 286 278 276 292 302 302 299 292 299 305 311 306 294 289 284 278 273 271 270 268 266 263 259 252 243 228 215 207
254 258 261 264 264 261 260 267 274 275 274 276 275 274 271 261 266 283 289 292 299 305 298 297 302 307 307 294 293 290 287 282 278 277 270 269 268 264 259 251 240 223 208 204
252 254 254 250 251 257 260 262 266 273 276 279 282 280 279 277 274 281 287 289 291 300 301 293 293 297 295 292 292 292 289 289 288 284 277 273 269 265 260 250 236 221 209 201
257 257 259 266 265 256 253 255 261 268 269 269 277 282 282 284 285 286 288 291 295 297 297 296 293 290 291 292 293 293 293 289 286 285 282 275 270 264 257 245 232 214 199 190
Height
1505 1503 1503 1505 1506 1507 1511 1515 1521 1518 1518 1514 1510 1507 1504 1500 1497 1494 1491 1490 1489 1487 1485 1484 1483 1482 1482 1481 1481 1481 1481 1482 1482 1484 1485 1485 1486 1486 1486 1486 1486 1486 1486 1486
1507 1505 1505 1508 1508 1508 1510 1512 1514 1515 1516 1511 1509 1507 1504 1501 1498 1495 1493 1491 1490 1488 1486 1484 1482 1481 1480 1479 1479 1478 1478 1478 1479 1480 1481 1482 1482 1483 1483 1483 1483 1483 1483 1483
1515 1510 1506 1515 1510 1510 1513 1513 1513 1518 1517 1511 1509 1506 1505 1502 1499 1498 1495 1492 1490 1487 1485 1483 1482 1480 1478 1477 1476 1475 1475 1475 1475 1476 1477 1477 1478 1479 1479 1480 1480 1480 1481 1481
1518 1513 1519 1516 1508 1508 1512 1514 1513 1512 1512 1510 1508 1506 1504 1502 1501 1498 1495 1492 1489 1487 1484 1482 1480 1478 1477 1475 1473 1472 1472 1471 1471 1471 1472 1473 1473 1474 1475 1476 1476 1477 1477 1478
1523 1522 1519 1513 1508 1509 1510 1514 1513 1512 1510 1508 1506 1503 1503 1502 1501 1499 1496 1493 1490 1487 1483 1480 1478 1476 1474 1472 1470 1469 1468 1467 1467 1467 1467 1467 1468 1469 1470 1471 1472 1472 1473 1474
1522 1519 1522 1514 1506 1504 1508 1515 1511 1510 1509 1508 1505 1508 1505 1501 1499 1496 1494 1492 1488 1485 1481 1478 1475 1473 1471 1468 1466 1465 1464 1463 1463 1462 1462 1462 1462 1463 1464 1465 1466 1468 1468 1470
1522 1521 1517 1509 1505 1504 1516 1515 1510 1509 1509 1508 1507 1508 1505 1501 1498 1495 1492 1489 1486 1483 1479 1476 1473 1470 1467 1465 1463 1461 1460 1458 1457 1457 1457 1456 1456 1457 1458 1459 1461 1462 1463 1464
1523 1523 1519 1507 1505 1509 1511 1509 1508 1508 1507 1507 1506 1504 1501 1499 1496 1493 1489 1486 1483 1480 1477 1474 1471 1468 1464 1462 1459 1457 1455 1453 1452 1451 1451 1450 1450 1451 1452 1453 1454 1455 1457 1458
1513 1513 1508 1505 1506 1507 1507 1507 1507 1506 1506 1505 1503 1501 1499 1496 1493 1490 1487 1484 1481 1477 1474 1471 1468 1465 1461 1458 1455 1452 1450 1447 1446 1445 1444 1444 1444 1444 1445 1446 1447 1448 1449 1451
1509 1506 1505 1505 1505 1505 1505 1505 1505 1505 1504 1503 1501 1499 1496 1493 1490 1488 1485 1481 1478 1475 1471 1468 1465 1462 1458 1455 1451 1448 1445 1442 1440 1439 1437 1437 1437 1437 1438 1438 1439 1440 1442 1443
1507 1504 1503 1503 1503 1503 1503 1503 1503 1502 1502 1500 1498 1496 1494 1491 1488 1485 1482 1478 1475 1472 1468 1464 1461 1457 1454 1451 1447 1443 1440 1437 1434 1433 1431 1429 1429 1430 1430 1431 1432 1433 1434 1436
1503 1499 1500 1500 1500 1501 1501 1501 1501 1500 1498 1497 1496 1493 1491 1488 1485 1481 1478 1475 1471 1468 1464 1461 1457 1453 1450 1446 1443 1439 1435 1431 1429 1426 1425 1423 1422 1421 1422 1423 1424 1426 1427 1429
1495 1495 1496 1497 1497 1498 1498 1498 1498 1497 1496 1494 1492 1490 1487 1484 1481 1478 1475 1471 1468 1464 1460 1456 1452 1448 1445 1442 1438 1434 1431 1426 1423 1420 1418 1417 1415 1414 1413 1414 1415 1417 1419 1421
1492 1493 1494 1494 1495 1495 1495 1495 1494 1493 1492 1490 1488 1486 1483 1480 1477 1474 1471 1467 1463 1459 1455 1451 1447 1443 1439 1436 1432 1429 1425 1421 1418 1414 1412 1410 1408 1407 1407 1406 1406 1406 1409 1412
1489 1490 1491 1491 1491 1491 1491 1490 1489 1488 1487 1485 1483 1481 1479 1476 1472 1469 1466 1462 1458 1454 1450 1446 1441 1437 1434 1430 1426 1422 1418 1415 1411 1408 1406 1404 1402 1401 1400 1399 1399 1399 1401 1403
1486 1486 1487 1487 1487 1487 1487 1486 1485 1483 1482 1480 1478 1476 1473 1470 1467 1464 1461 1457 1453 1448 1444 1440 1435 1432 1428 1424 1419 1415 1412 1408 1405 1402 1399 1397 1395 1393 1392 1392 1391 1392 1393 1395
1482 1482 1482 1482 1483 1482 1482 1481 1480 1479 1477 1475 1473 1470 1468 1465 1461 1458 1455 1451 1448 1443 1439 1435 1430 1425 1421 1417 1413 1409 1405 1401 1399 1396 1393 1390 1388 1386 1385 1384 1384 1384 1385 1387
1477 1478 1478 1478 1478 1477 1477 1476 1475 1474 1472 1470 1467 1465 1462 1459 1455 1452 1448 1444 1440 1436 1433 1429 1424 1419 1415 1411 1407 1402 1398 1395 1392 1389 1386 1383 1381 1379 1378 1377 1376 1377 1377 1379
1473 1473 1474 1474 1473 1473 1472 1471 1469 1468 1466 1464 1462 1459 1456 1453 1450 1446 1442 1438 1433 1428 1424 1421 1417 1412 1407 1403 1400 1395 1391 1388 1384 1381 1379 1376 1373 1371 1370 1369 1368 1369 1370 1371
1469 1469 1469 1469 1469 1468 1467 1466 1464 1463 1461 1459 1456 1453 1450 1447 1443 1439 1435 1431 1427 1423 1418 1413 1409 1405 1400 1396 1392 1388 1384 1380 1377 1374 1371 1368 1366 1364 1362 1361 1360 1361 1361 1362
1465 1465 1465 1464 1463 1463 1462 1461 1459 1457 1455 1453 1450 1447 1443 1440 1437 1433 1428 1423 1419 1416 1411 1406 1402 1397 1393 1388 1384 1380 1376 1372 1369 1365 1362 1360 1357 1355 1354 1352 1352 1352 1353 1354
1461 1461 1460 1459 1458 1457 1456 1455 1453 1451 1449 1446 1444 1441 1437 1433 1429 1425 1421 1417 1412 1408 1403 1399 1395 1390 1385 1381 1376 1372 1368 1364 1360 1357 1354 1351 1349 1347 1345 1344 1344 1344 1344 1346
1457 1456 1455 1454 1453 1451 1450 1449 1447 1445 1442 1440 1437 1434 1431 1427 1423 1418 1413 1409 1405 1401 1396 1391 1387 1383 1378 1373 1368 1364 1359 1355 1351 1348 1345 1343 1340 1338 1337 1335 1335 1336 1336 1338
1452 1451 1450 1449 1447 1445 1443 1442 1440 1438 1436 1433 1431 1428 1424 1420 1416 1412 1408 1403 1398 1393 1388 1384 1380 1375 1371 1365 1360 1355 1351 1347 1343 1340 1337 1334 1332 1329 1328 1327 1327 1327 1328 1330
1446 1445 1444 1443 1441 1439 1437 1435 1433 1431 1429 1426 1423 1421 1418 1414 1410 1405 1401 1396 1391 1386 1381 1377 1373 1368 1363 1358 1353 1348 1343 1338 1335 1332 1329 1326 1323 1321 1319 1318 1318 1319 1320 1323
1439 1438 1437 1436 1434 1432 1430 1428 1426 1424 1421 1418 1415 1413 1410 1407 1403 1398 1394 1389 1384 1379 1374 1370 1365 1361 1356 1351 1346 1341 1336 1332 1328 1325 1321 1318 1316 1313 1311 1310 1310 1311 1313 1316
1432 1431 1430 1429 1427 1426 1424 1422 1419 1417 1414 1411 1408 1405 1403 1399 1395 1391 1387 1383 1378 1373 1368 1363 1359 1354 1350 1345 1340 1335 1330 1325 1321 1318 1315 1312 1309 1307 1305 1304 1304 1305 1308 1310